Location: Amsterdam
(30.7274°N, 84.4357°W)
Time: 00:15:14
(UTC+00:00)

Tiros 1 despin weight - Pass Details

Date: 19 February 2026
Orbit: 556 x 593 km, 48.2° (Epoch: 9 March)

Event Time Altitude Azimuth Distance (km) Brightness Sun altitude
Rises 20:12:26 0° 263° (W) 2,744 ? 36.2°
Reaches altitude 10° 20:15:06 10° 279° (W) 1,844 ? 35.8°
Maximum altitude 20:18:24 22° 331° (NNW) 1,244 ? 35.3°
Drops below altitude 10° 20:21:42 10° 23° (NNE) 1,837 ? 34.8°
Sets 20:24:21 0° 39° (NE) 2,732 ? 34.4°
